Find Starlink 3608

NORAD ID: 51776 Int'l Des: 2022-017 Owner: SPXS Country: US Constellation: starlink operational
LEOCIRCULAR

現在のビュー

3D地球を読み込み中...

About Starlink 3608

Starlink 3608 (NORAD 51776) is a starlink constellation satellite (v1.5) launched Feb 25, 2022 by SPXS of US. It operates in LEO, CIRCULAR orbit with a mass of 297.00 kg.

Starlink 3608について

説明を読み込み中...

次回通過

Passes for default location (London). Set your location on the main map for personalized predictions.

高度履歴

Loading altitude history...

軌道要素

1 51776U 22017J 26171.46223170 .00000378 00000-0 41817-4 0 9993
2 51776 53.1591 237.6393 0001130 89.3712 270.7408 15.08836487238089
Epoch: Jun 20, 2026 • Age: 30 hours

現在のステータス

高度 550.4 km
速度 7.59 km/s
衛星直下点 -32.54°S, 79.74°W
打ち上げ日 Feb 25, 2022
運用期間 4.3 years
タイプ internet

技術仕様

分類 Payload
質量 297.00 kg
乾燥質量 275.00 kg
総質量 297.00 kg
長さ 0.20 m
直径 2.80 m
スパン 9.00 m
形状 Box + pan
製造者 SPXS
バスタイプ Starlink
フェーズステータス In Orbit
所有者/国 SPXS/US

Most Searched